{"data":{"norad_id":37730,"epoch":"2026-05-25T04:30:52.602048Z","epoch_age_seconds":54736,"freshness":"FRESH","line1":"1 37730U 11030A   26145.18810882  .00000724  00000+0  14570-3 0  9991","line2":"2 37730  97.9325 110.0596 0009621 102.7105  22.8484 14.64308239793741","mean_motion":14.64308239,"eccentricity":0.0009621,"inclination_deg":97.9325,"raan_deg":110.0596,"arg_perigee_deg":102.7105,"mean_anomaly_deg":22.8484,"bstar":0.0001457,"rev_number":79374,"period_min":98.339950677557,"perigee_km":672.50723697192,"apogee_km":686.0871518488,"semimajor_km":7057.4341944104,"source":"CELESTRAK","updated_at":"2026-05-25T13:37:55.257972Z"}}